Location: Bennemühlen
(52.5740°N, 9.7135°E)
Time: 20:52:16
(UTC+00:00)

Tiros 1 despin weight - Pass Details

Date: 16 February 2026
Orbit: 556 x 593 km, 48.2° (Epoch: 5 March)

Event Time Altitude Azimuth Distance (km) Brightness Sun altitude
Rises 17:02:59 0° 251° (WSW) 2,732 ? -4.8°
Reaches altitude 10° 17:05:17 10° 244° (WSW) 1,837 ? -5.2°
Maximum altitude 17:09:17 44° 173° (S) 776 ? -5.7°
Drops below altitude 10° 17:13:17 10° 101° (E) 1,842 ? -6.3°
Enters shadow 17:14:00 - 98° (E) 2,120 ? -6.4°
Sets 17:15:36 0° 95° (E) 2,741 - -6.7°
